TimeADT,TemperatureF,Dew PointF,Humidity,Sea Level PressureIn,VisibilityMPH,Wind Direction,Wind SpeedMPH,Gust SpeedMPH,PrecipitationIn,Events,Conditions,WindDirDegrees,DateUTC
12:00 AM,73.4,64.4,73,29.91,15.0,SW,8.1,-,N/A,,Clear,230,2013-07-06 03:00:00
1:00 AM,71.6,64.4,78,29.91,15.0,SW,9.2,-,N/A,,Clear,230,2013-07-06 04:00:00
2:00 AM,71.6,64.4,78,29.91,15.0,SW,11.5,-,N/A,,Scattered Clouds,230,2013-07-06 05:00:00
3:00 AM,70,65,79,29.91,15,SW,9.2,,,,,230,2013-07-06 06:00:00
3:00 AM,69.8,64.4,83,29.91,15.0,SW,8.1,-,N/A,,Clear,230,2013-07-06 06:00:00
4:00 AM,69.8,66.2,88,29.92,15.0,SW,11.5,-,N/A,,Clear,230,2013-07-06 07:00:00
5:00 AM,69.8,66.2,88,29.91,15.0,SW,8.1,-,N/A,,Partly Cloudy,230,2013-07-06 08:00:00
6:00 AM,68.0,64.4,88,29.91,15.0,SW,6.9,-,N/A,,Scattered Clouds,230,2013-07-06 09:00:00
7:00 AM,71.6,66.2,83,29.91,15.0,SW,10.4,-,N/A,,Scattered Clouds,220,2013-07-06 10:00:00
8:00 AM,73.4,66.2,78,29.91,15.0,SW,11.5,-,N/A,,Scattered Clouds,230,2013-07-06 11:00:00
9:00 AM,77,68,67,29.91,15,WSW,11.5,,,,Scattered Clouds,240,2013-07-06 12:00:00
9:00 AM,77.0,68.0,74,29.90,15.0,WSW,10.4,-,N/A,,Scattered Clouds,250,2013-07-06 12:00:00
10:00 AM,78.8,69.8,74,29.90,15.0,WSW,12.7,-,N/A,,Scattered Clouds,240,2013-07-06 13:00:00
11:00 AM,82.4,69.8,66,29.89,15.0,SW,10.4,-,N/A,,Mostly Cloudy,230,2013-07-06 14:00:00
12:00 PM,84.2,69.8,62,29.88,15.0,WSW,10.4,-,N/A,,Mostly Cloudy,240,2013-07-06 15:00:00
1:00 PM,84.2,68.0,58,29.86,15.0,SW,9.2,-,N/A,,Mostly Cloudy,230,2013-07-06 16:00:00
2:00 PM,87.8,68.0,52,29.85,15.0,SW,16.1,23.0,N/A,,Mostly Cloudy,220,2013-07-06 17:00:00
3:00 PM,88,66,38,29.83,15,Calm,Calm,,,,Scattered Clouds,,2013-07-06 18:00:00
3:00 PM,87.8,66.2,49,29.83,15.0,SW,12.7,-,N/A,,Mostly Cloudy,220,2013-07-06 18:00:00
4:00 PM,86.0,68.0,55,29.82,15.0,SW,15.0,20.7,N/A,,Mostly Cloudy,230,2013-07-06 19:00:00
5:00 PM,86.0,66.2,51,29.81,15.0,WSW,12.7,20.7,N/A,,Mostly Cloudy,240,2013-07-06 20:00:00
6:00 PM,84.2,66.2,55,29.79,15.0,SW,13.8,-,N/A,,Mostly Cloudy,230,2013-07-06 21:00:00
7:00 PM,84.2,68.0,58,29.78,15.0,WSW,13.8,20.7,N/A,,Scattered Clouds,240,2013-07-06 22:00:00
8:00 PM,82.4,68.0,62,29.78,15.0,WSW,11.5,-,N/A,,Partly Cloudy,250,2013-07-06 23:00:00
9:00 PM,79,69,64,29.79,15,SW,9.2,,,,Scattered Clouds,230,2013-07-07 00:00:00
9:00 PM,78.8,69.8,74,29.78,15.0,SW,9.2,-,N/A,,Partly Cloudy,230,2013-07-07 00:00:00
10:00 PM,75.2,68.0,78,29.81,15.0,SSW,8.1,-,N/A,,Partly Cloudy,210,2013-07-07 01:00:00
11:00 PM,73.4,68.0,83,29.80,15.0,SW,8.1,-,N/A,,Clear,220,2013-07-07 02:00:00